Retour au catalogue

STARLINK-34810

ActifCommunicationsSSO
NORAD 65068·PAYLOAD·🇺🇸 United States

Lancé Jul 31, 2025 depuis Vandenberg Space Force Base

Loading…

Prochains Passages (prochaines 24 heures)

TLE

FraisSource: CelesTrak SupGP

Époque: Sep 15, 2026, 02:31 UTC

1 65068C 25165N   26258.10534722  .01973700  00000+0  73905-1 0  2580
2 65068  97.2842 329.3566 0001548  87.8038 341.4646 15.26361921    10

Suivez STARLINK-34810 en temps réel avec AllMySat

Download on the App Store